Kimball, NE

1:42 AM MDT on June 24, 2017 (GMT -0600)
Kimball Municipal-Arraj

Weather History for KIBM - June, 2013

Change the Weather History Date:

Thursday, June 13, 2013

  Actual Average (KSNY) Record (KSNY)
Temperature  
Mean Temperature 66 °F -  
Max Temperature 82 °F 77 °F 100 °F (1956)
Min Temperature 49 °F 48 °F 31 °F (1969)
Growing Degree Days 16 (Base 50)    
Moisture  
Dew Point 50 °F    
Average Humidity 63    
Maximum Humidity 95    
Minimum Humidity 32    
Precipitation  
Precipitation 0.00 in - - ()
Sea Level Pressure  
Sea Level Pressure 30.08 in    
Wind  
Wind Speed 12 mph (SE)    
Max Wind Speed 24 mph    
Max Gust Speed 32 mph    
Visibility 10 miles    
Events      
Averages and records for this station are not official NWS values.
T = Trace of Precipitation, MM = Missing Value Source: NWS Daily Summary

Daily Weather History Graph

Daily Weather History Graph

Search for Another Location

Airport or City:

Trip Planner

Search our weather history database for the weather conditions in past years. The results will help you decide how hot, cold, wet, or windy it might be!

Date:

Astronomy

Jun. 13, 2013 Rise Set
Actual Time 6:21 AM CDT 9:28 PM CDT
Civil Twilight 5:47 AM CDT 10:02 PM CDT
Nautical Twilight 5:04 AM CDT 10:45 PM CDT
Astronomical Twilight 4:13 AM CDT 11:36 PM CDT
Moon 11:02 AM CDT (6/13) 12:03 AM CDT (6/13)
Length of Visible Light 16h 14m
Length of Day
15h 07m
Waxing Crescent, 22% of the Moon is Illuminated
Jun 13
Waxing Crescent
Jun 16
First Quarter
Jun 23
Full
Jun 29
Last Quarter
Jul 8
New

Hourly Weather History & Observations

Time (CDT) Temp. Dew Point Humidity Pressure Visibility Wind Dir Wind Speed Gust Speed Precip Events Conditions
12:15 AM 58.1 °F 50.4 °F 75% 30.16 in 10.0 mi SE 11.5 mph - N/A   Clear
12:35 AM 57.6 °F 50.4 °F 77% 30.15 in 10.0 mi ESE 13.8 mph - N/A   Clear
12:55 AM 57.2 °F 50.2 °F 77% 30.15 in 10.0 mi SE 15.0 mph 19.6 mph N/A   Clear
1:15 AM 56.5 °F 50.2 °F 79% 30.15 in 10.0 mi SE 12.7 mph - N/A   Clear
1:35 AM 55.4 °F 50.0 °F 82% 30.17 in 10.0 mi SE 11.5 mph - N/A   Clear
1:55 AM 55.4 °F 50.0 °F 82% 30.16 in 10.0 mi SE 11.5 mph 17.3 mph N/A   Clear
2:15 AM 54.5 °F 49.6 °F 84% 30.16 in 10.0 mi SE 9.2 mph - N/A   Clear
2:35 AM 55.0 °F 49.6 °F 82% 30.17 in 10.0 mi SE 8.1 mph - N/A   Clear
2:55 AM 53.6 °F 49.3 °F 85% 30.19 in 10.0 mi Calm Calm - N/A   Clear
3:15 AM 51.8 °F 48.6 °F 89% 30.19 in 10.0 mi ENE 3.5 mph - N/A   Clear
3:35 AM 51.1 °F 48.4 °F 90% 30.17 in 10.0 mi ENE 3.5 mph - N/A   Clear
3:55 AM 50.9 °F 48.2 °F 90% 30.17 in 10.0 mi NE 3.5 mph - N/A   Clear
4:15 AM 50.0 °F 47.5 °F 91% 30.18 in 10.0 mi ENE 3.5 mph - N/A   Clear
4:35 AM 49.3 °F 47.3 °F 93% 30.17 in 10.0 mi East 6.9 mph - N/A   Clear
4:55 AM 49.6 °F 47.7 °F 93% 30.17 in 10.0 mi East 6.9 mph - N/A   Clear
5:15 AM 50.7 °F 48.6 °F 92% 30.17 in 10.0 mi ESE 4.6 mph - N/A   Clear
5:35 AM 50.2 °F 48.2 °F 93% 30.17 in 10.0 mi ESE 3.5 mph - N/A   Clear
5:55 AM 49.1 °F 47.3 °F 93% 30.17 in 10.0 mi Calm Calm - N/A   Clear
6:15 AM 49.6 °F 48.2 °F 95% 30.17 in 10.0 mi ESE 8.1 mph - N/A   Clear
6:35 AM 50.0 °F 48.2 °F 94% 30.17 in 10.0 mi ESE 8.1 mph - N/A   Clear
6:55 AM 50.5 °F 48.6 °F 93% 30.17 in 10.0 mi SE 8.1 mph - N/A   Clear
7:15 AM 50.5 °F 48.6 °F 93% 30.17 in 10.0 mi ESE 9.2 mph - N/A   Scattered Clouds
7:35 AM 51.3 °F 49.1 °F 92% 30.16 in 10.0 mi SE 10.4 mph - N/A   Scattered Clouds
7:55 AM 52.3 °F 49.5 °F 90% 30.16 in 10.0 mi SE 12.7 mph - N/A   Clear
8:15 AM 53.4 °F 50.0 °F 88% 30.16 in 10.0 mi SE 13.8 mph - N/A   Scattered Clouds
8:35 AM 55.2 °F 49.6 °F 81% 30.16 in 10.0 mi SE 19.6 mph - N/A   Mostly Cloudy
8:55 AM 55.2 °F 49.3 °F 80% 30.17 in 10.0 mi SSE 18.4 mph - N/A   Mostly Cloudy
9:15 AM 56.3 °F 49.5 °F 78% 30.16 in 10.0 mi SSE 19.6 mph 23.0 mph N/A   Mostly Cloudy
9:35 AM 56.5 °F 49.3 °F 77% 30.16 in 10.0 mi SSE 16.1 mph - N/A   Overcast
9:55 AM 57.4 °F 49.6 °F 75% 30.16 in 10.0 mi SSE 16.1 mph 23.0 mph N/A   Overcast
10:15 AM 56.7 °F 49.6 °F 77% 30.16 in 10.0 mi SSE 18.4 mph - N/A   Overcast
10:35 AM 56.3 °F 50.0 °F 79% 30.15 in 10.0 mi SSE 18.4 mph 21.9 mph N/A   Overcast
10:55 AM 57.7 °F 50.4 °F 76% 30.15 in 10.0 mi SSE 17.3 mph 24.2 mph N/A   Overcast
11:15 AM 59.0 °F 50.9 °F 74% 30.15 in 10.0 mi SSE 16.1 mph - N/A   Overcast
11:35 AM 61.3 °F 51.6 °F 70% 30.15 in 10.0 mi SSE 18.4 mph - N/A   Overcast
11:55 AM 63.5 °F 52.5 °F 67% 30.14 in 10.0 mi South 16.1 mph - N/A   Overcast
12:15 PM 64.2 °F 52.3 °F 65% 30.13 in 10.0 mi South 16.1 mph 20.7 mph N/A   Scattered Clouds
12:35 PM 66.4 °F 52.7 °F 61% 30.12 in 10.0 mi SSE 13.8 mph 20.7 mph N/A   Scattered Clouds
12:55 PM 67.3 °F 52.9 °F 60% 30.11 in 10.0 mi SSE 13.8 mph 20.7 mph N/A   Clear
1:15 PM 69.8 °F 53.2 °F 56% 30.10 in 7.0 mi SSE 16.1 mph 20.7 mph N/A   Clear
1:35 PM 72.0 °F 53.1 °F 51% 30.10 in 10.0 mi SSE 13.8 mph 21.9 mph N/A   Clear
1:55 PM 73.8 °F 53.2 °F 49% 30.09 in 10.0 mi SSE 11.5 mph 21.9 mph N/A   Clear
2:15 PM 75.2 °F 52.7 °F 45% 30.08 in 10.0 mi South 12.7 mph 19.6 mph N/A   Clear
2:35 PM 76.1 °F 52.7 °F 44% 30.07 in 10.0 mi SSE 17.3 mph 21.9 mph N/A   Clear
2:55 PM 77.4 °F 52.0 °F 41% 30.06 in 10.0 mi South 13.8 mph 21.9 mph N/A   Clear
3:15 PM 78.6 °F 52.0 °F 39% 30.05 in 10.0 mi SSE 13.8 mph 23.0 mph N/A   Clear
3:35 PM 79.2 °F 51.4 °F 38% 30.05 in 10.0 mi SSE 16.1 mph 21.9 mph N/A   Clear
3:55 PM 80.2 °F 51.8 °F 37% 30.04 in 10.0 mi ESE 12.7 mph 19.6 mph N/A   Clear
4:15 PM 80.8 °F 50.9 °F 35% 30.03 in 10.0 mi SSE 16.1 mph - N/A   Clear
4:35 PM 81.5 °F 51.1 °F 35% 30.02 in 10.0 mi SE 15.0 mph 21.9 mph N/A   Clear
4:55 PM 81.5 °F 50.4 °F 34% 30.01 in 10.0 mi SE 18.4 mph 24.2 mph N/A   Clear
5:15 PM 82.0 °F 50.7 °F 34% 30.02 in 10.0 mi SSE 16.1 mph 25.3 mph N/A   Clear
5:35 PM 82.9 °F 50.5 °F 32% 30.00 in 10.0 mi SE 20.7 mph 27.6 mph N/A   Clear
5:55 PM 81.5 °F 50.0 °F 33% 29.99 in 10.0 mi SE 18.4 mph 24.2 mph N/A   Clear
6:15 PM 80.8 °F 50.2 °F 34% 29.98 in 10.0 mi SE 18.4 mph 24.2 mph N/A   Clear
6:35 PM 81.5 °F 50.0 °F 33% 29.98 in 10.0 mi SSE 18.4 mph - N/A   Clear
6:55 PM 80.8 °F 50.0 °F 34% 29.96 in 10.0 mi SE 20.7 mph 25.3 mph N/A   Clear
7:15 PM 78.8 °F 50.2 °F 37% 29.96 in 10.0 mi SE 16.1 mph 24.2 mph N/A   Clear
7:35 PM 77.9 °F 50.4 °F 38% 29.95 in 10.0 mi ESE 11.5 mph 15.0 mph N/A   Clear
7:55 PM 76.6 °F 50.9 °F 40% 29.95 in 10.0 mi SE 11.5 mph - N/A   Clear
8:15 PM 76.3 °F 51.8 °F 42% 29.94 in 10.0 mi ESE 13.8 mph 18.4 mph N/A   Clear
8:35 PM 76.1 °F 52.2 °F 43% 29.95 in 10.0 mi ESE 15.0 mph 19.6 mph N/A   Clear
8:55 PM 75.9 °F 51.6 °F 43% 29.94 in 10.0 mi SE 16.1 mph - N/A   Clear
9:15 PM 76.1 °F 44.4 °F 32% 29.94 in 10.0 mi SSE 17.3 mph 21.9 mph N/A   Clear
9:35 PM 72.5 °F 46.0 °F 39% 29.96 in 10.0 mi South 17.3 mph - N/A   Clear
9:55 PM 71.1 °F 46.4 °F 41% 29.94 in 10.0 mi SSE 18.4 mph 25.3 mph N/A   Clear
10:15 PM 71.6 °F 44.8 °F 38% 29.96 in 10.0 mi SE 23.0 mph 28.8 mph N/A   Clear
10:35 PM 70.7 °F 46.6 °F 42% 29.95 in 10.0 mi SE 24.2 mph 32.2 mph N/A   Clear
10:55 PM 70.9 °F 46.8 °F 42% 29.94 in 10.0 mi SE 21.9 mph 28.8 mph N/A   Clear
11:15 PM 69.8 °F 48.2 °F 46% 29.95 in 10.0 mi SE 20.7 mph 26.5 mph N/A   Clear
11:35 PM 68.2 °F 49.3 °F 51% 29.95 in 10.0 mi SE 11.5 mph 16.1 mph N/A   Clear
11:55 PM 68.2 °F 48.2 °F 49% 29.95 in 10.0 mi SSE 10.4 mph - N/A   Clear